Location: Rounton
(54.4000°N, 1.3500°W)
Time: 14:13:14
(UTC+00:00)

Transit 2A Rocket - Pass Details

Date: 05 December 2021
Orbit: 584 x 918 km, 66.7° (Epoch: 17 January)

Event Time Altitude Azimuth Distance (km) Brightness Sun altitude
Rises 09:03:26 0° 239° (WSW) 3,406 8.3 4.7°
Reaches altitude 10° 09:05:54 10° 244° (WSW) 2,512 7.6 5.0°
Maximum altitude 09:11:41 55° 322° (NW) 1,076 5.6 5.5°
Drops below altitude 10° 09:17:44 10° 40° (NE) 2,622 7.7 6.0°
Sets 09:20:21 0° 45° (NE) 3,567 8.4 6.2°
